Tracking 34401 objects as of 17-Jun-2026
HD Live streaming from Space Station
objects crossing your sky now

DELTA 1 R/B

Track DELTA 1 R/B now!
10-day predictions


NORAD ID: 6921
Int'l Code: 1973-086B
Perigee: 1,515.0 km
Apogee: 1,537.4 km
Inclination: 102.3 °
Period: 116.4 minutes
Semi major axis: 7897 km
RCS: 3.8464 m2 (large)
Launch date: November 6, 1973
Source: United States (US)
Launch site: AIR FORCE WESTERN TEST RANGE (AFWTR)

Note: This is a ROCKET BODY
Your satellite tracking list
Your tracking list is empty




NASA's NSSDC Master Catalog

Two Line Element Set (TLE):
1  6921U 73086B   26167.78125588 -.00000037  00000-0  71629-4 0  9998
2  6921 102.3380 197.7630 0014208 270.0616  89.8817 12.37068147390289
Source of the keplerian elements: AFSPC